| time (UTC) | temp F | wind direction | speed MPH | gust MPH | rain 1hr in | rain 24hr in | rain mn in | humidity % | barometer mb |
| 20260509021502 | 75 | 299 | 1.0 | 4.0 | 0.00 | 0.00 | 0.00 | 87 | 1008.8 |
| 20260509021218 | 75 | 305 | 1.0 | 4.0 | 0.00 | 0.00 | 0.00 | 87 | 1008.7 |
| 20260509020456 | 75 | 25 | 1.0 | 3.0 | 0.00 | 0.00 | 0.00 | 86 | 1008.7 |
| 20260509020451 | 75 | 62 | 2.0 | 4.0 | 0.00 | 0.00 | 0.00 | 86 | 1008.7 |
| 20260509015450 | 75 | 186 | 1.0 | 3.0 | 0.00 | 0.00 | 0.00 | 86 | 1008.7 |
| 20260509014950 | 76 | 145 | 1.0 | 3.0 | 0.00 | 0.00 | 0.00 | 86 | 1008.7 |
| 20260509014449 | 76 | 345 | 2.0 | 4.0 | 0.00 | 0.00 | 0.00 | 85 | 1008.6 |
| 20260509013949 | 76 | 145 | 2.0 | 4.0 | 0.00 | 0.00 | 0.00 | 85 | 1008.5 |
| 20260509013450 | 76 | 300 | 2.0 | 4.0 | 0.00 | 0.00 | 0.00 | 85 | 1008.4 |
| 20260509012952 | 76 | 106 | 2.0 | 4.0 | 0.00 | 0.00 | 0.00 | 84 | 1008.4 |
| 20260509012718 | 76 | 135 | 1.0 | 4.0 | 0.00 | 0.00 | 0.00 | 84 | 1008.4 |
| 20260509011952 | 76 | 223 | 2.0 | 4.0 | 0.00 | 0.00 | 0.00 | 84 | 1008.4 |
| 20260509011718 | 77 | 93 | 2.0 | 4.0 | 0.00 | 0.00 | 0.00 | 83 | 1008.4 |
| 20260509011659 | 76 | 266 | 2.0 | 4.0 | 0.00 | 0.00 | 0.00 | 83 | 1008.4 |
| 20260509010450 | 77 | 70 | 2.0 | 4.0 | 0.00 | 0.00 | 0.00 | 83 | 1008.5 |
| 20260509005950 | 77 | 356 | 2.0 | 4.0 | 0.00 | 0.00 | 0.00 | 83 | 1008.5 |
| 20260509005450 | 77 | 136 | 2.0 | 5.0 | 0.00 | 0.00 | 0.00 | 82 | 1008.4 |
| 20260509004950 | 77 | 358 | 2.0 | 5.0 | 0.00 | 0.00 | 0.00 | 82 | 1008.3 |
| 20260509004724 | 77 | 116 | 3.0 | 7.0 | 0.00 | 0.00 | 0.00 | 82 | 1008.3 |
| 20260509003948 | 77 | 86 | 3.0 | 7.0 | 0.00 | 0.00 | 0.00 | 82 | 1008.3 |
| 20260509003449 | 77 | 93 | 3.0 | 6.0 | 0.00 | 0.00 | 0.00 | 82 | 1008.4 |
| 20260509003219 | 77 | 86 | 2.0 | 5.0 | 0.00 | 0.00 | 0.00 | 82 | 1008.4 |
| 20260509002449 | 77 | 33 | 2.0 | 6.0 | 0.00 | 0.00 | 0.00 | 81 | 1008.4 |
| 20260509001948 | 77 | 59 | 2.0 | 6.0 | 0.00 | 0.00 | 0.00 | 81 | 1008.4 |
| 20260509001450 | 77 | 74 | 2.0 | 6.0 | 0.00 | 0.00 | 0.00 | 81 | 1008.4 |
| 20260509000940 | 77 | 106 | 3.0 | 6.0 | 0.00 | 0.00 | 0.00 | 81 | 1008.5 |
| 20260509000440 | 77 | 123 | 2.0 | 6.0 | 0.00 | 0.00 | 0.00 | 80 | 1008.5 |
| 20260508235940 | 77 | 307 | 3.0 | 7.0 | 0.00 | 0.00 | 0.00 | 80 | 1008.4 |
| 20260508235441 | 78 | 45 | 3.0 | 7.0 | 0.00 | 0.00 | 0.00 | 80 | 1008.5 |
| 20260508234937 | 78 | 358 | 2.0 | 4.0 | 0.00 | 0.00 | 0.00 | 80 | 1008.5 |
| 20260508234437 | 78 | 64 | 2.0 | 6.0 | 0.00 | 0.00 | 0.00 | 79 | 1008.5 |
| 20260508233935 | 78 | 28 | 2.0 | 6.0 | 0.00 | 0.00 | 0.00 | 79 | 1008.5 |
| 20260508233434 | 78 | 124 | 2.0 | 5.0 | 0.00 | 0.00 | 0.00 | 79 | 1008.5 |
| 20260508232933 | 78 | 71 | 2.0 | 5.0 | 0.00 | 0.00 | 0.00 | 79 | 1008.5 |
| 20260508232431 | 78 | 149 | 2.0 | 7.0 | 0.00 | 0.00 | 0.00 | 79 | 1008.5 |
| 20260508231932 | 78 | 43 | 2.0 | 7.0 | 0.00 | 0.00 | 0.00 | 79 | 1008.5 |
| 20260508231431 | 78 | 308 | 2.0 | 8.0 | 0.00 | 0.00 | 0.00 | 78 | 1008.5 |
| 20260508230932 | 78 | 61 | 2.0 | 8.0 | 0.00 | 0.00 | 0.00 | 78 | 1008.4 |
| 20260508230432 | 78 | 9 | 2.0 | 5.0 | 0.00 | 0.00 | 0.00 | 77 | 1008.5 |
| 20260508230214 | 78 | 0 | 2.0 | 6.0 | 0.00 | 0.00 | 0.00 | 78 | 1008.5 |
| 20260508225716 | 78 | 14 | 2.0 | 7.0 | 0.00 | 0.00 | 0.00 | 78 | 1008.4 |
| 20260508224931 | 78 | 72 | 2.0 | 7.0 | 0.00 | 0.00 | 0.00 | 78 | 1008.4 |
| 20260508224430 | 78 | 312 | 2.0 | 5.0 | 0.00 | 0.00 | 0.00 | 78 | 1008.4 |
| 20260508223929 | 78 | 193 | 2.0 | 5.0 | 0.00 | 0.00 | 0.00 | 78 | 1008.4 |
| 20260508223430 | 78 | 25 | 2.0 | 6.0 | 0.00 | 0.00 | 0.00 | 78 | 1008.4 |
| 20260508222929 | 78 | 11 | 2.0 | 6.0 | 0.00 | 0.00 | 0.00 | 78 | 1008.4 |
| 20260508222507 | 78 | 312 | 3.0 | 7.0 | 0.00 | 0.00 | 0.00 | 79 | 1008.5 |
| 20260508222454 | 78 | 36 | 2.0 | 7.0 | 0.00 | 0.00 | 0.00 | 79 | 1008.4 |
| 20260508221429 | 78 | 97 | 2.0 | 7.0 | 0.00 | 0.00 | 0.00 | 79 | 1008.5 |
| 20260508221002 | 78 | 83 | 2.0 | 8.0 | 0.00 | 0.00 | 0.00 | 79 | 1008.5 |
| 20260508220951 | 78 | 133 | 2.0 | 7.0 | 0.00 | 0.00 | 0.00 | 79 | 1008.5 |
| 20260508215929 | 78 | 58 | 2.0 | 8.0 | 0.00 | 0.00 | 0.00 | 79 | 1008.6 |
| 20260508215430 | 78 | 26 | 2.0 | 6.0 | 0.00 | 0.00 | 0.00 | 79 | 1008.6 |
| 20260508214928 | 78 | 52 | 2.0 | 6.0 | 0.00 | 0.00 | 0.00 | 79 | 1008.7 |
| 20260508214430 | 78 | 0 | 2.0 | 5.0 | 0.00 | 0.00 | 0.00 | 78 | 1008.7 |
| 20260508213930 | 78 | 350 | 2.0 | 6.0 | 0.00 | 0.00 | 0.00 | 77 | 1008.7 |
| 20260508213430 | 78 | 75 | 2.0 | 9.0 | 0.00 | 0.00 | 0.00 | 77 | 1008.7 |
| 20260508212929 | 78 | 57 | 2.0 | 9.0 | 0.00 | 0.00 | 0.00 | 77 | 1008.8 |
| 20260508212657 | 78 | 30 | 3.0 | 7.0 | 0.00 | 0.00 | 0.00 | 77 | 1008.9 |
| 20260508211929 | 78 | 163 | 2.0 | 7.0 | 0.00 | 0.00 | 0.00 | 77 | 1009.0 |
| 20260508211429 | 79 | 351 | 2.0 | 6.0 | 0.00 | 0.00 | 0.00 | 76 | 1009.0 |
| 20260508210930 | 79 | 119 | 2.0 | 5.0 | 0.00 | 0.00 | 0.00 | 77 | 1009.2 |
| 20260508210430 | 78 | 73 | 2.0 | 5.0 | 0.00 | 0.00 | 0.00 | 78 | 1009.2 |
| 20260508205929 | 78 | 89 | 2.0 | 6.0 | 0.00 | 0.00 | 0.00 | 77 | 1009.3 |
| 20260508205429 | 78 | 82 | 3.0 | 8.0 | 0.00 | 0.00 | 0.00 | 77 | 1009.4 |
| 20260508204929 | 78 | 40 | 3.0 | 8.0 | 0.00 | 0.00 | 0.00 | 77 | 1009.5 |
| 20260508204719 | 78 | 86 | 2.0 | 8.0 | 0.00 | 0.00 | 0.00 | 77 | 1009.5 |
| 20260508203930 | 77 | 13 | 3.0 | 8.0 | 0.00 | 0.00 | 0.00 | 77 | 1009.6 |
| 20260508203429 | 77 | 36 | 3.0 | 8.0 | 0.00 | 0.00 | 0.00 | 78 | 1009.5 |
| 20260508202930 | 77 | 33 | 2.0 | 6.0 | 0.00 | 0.00 | 0.00 | 78 | 1009.6 |
| 20260508202428 | 77 | 32 | 2.0 | 4.0 | 0.00 | 0.01 | 0.00 | 77 | 1009.7 |
| 20260508201930 | 77 | 84 | 2.0 | 5.0 | 0.00 | 0.01 | 0.00 | 78 | 1009.9 |
| 20260508201429 | 76 | 24 | 2.0 | 5.0 | 0.00 | 0.01 | 0.00 | 78 | 1010.1 |
| 20260508200929 | 76 | 68 | 2.0 | 6.0 | 0.00 | 0.01 | 0.00 | 79 | 1010.1 |
| 20260508200431 | 76 | 91 | 2.0 | 6.0 | 0.00 | 0.01 | 0.00 | 80 | 1010.2 |
| 20260508195928 | 76 | 38 | 2.0 | 5.0 | 0.00 | 0.01 | 0.00 | 78 | 1010.3 |
| 20260508195429 | 76 | 357 | 2.0 | 5.0 | 0.00 | 0.01 | 0.00 | 78 | 1010.3 |
| 20260508194929 | 76 | 50 | 2.0 | 5.0 | 0.00 | 0.01 | 0.00 | 78 | 1010.3 |
| 20260508194429 | 76 | 11 | 2.0 | 5.0 | 0.00 | 0.01 | 0.00 | 78 | 1010.3 |
| 20260508193929 | 76 | 12 | 2.0 | 6.0 | 0.00 | 0.01 | 0.00 | 77 | 1010.4 |
| 20260508193430 | 76 | 50 | 2.0 | 6.0 | 0.00 | 0.01 | 0.00 | 76 | 1010.4 |
| 20260508192929 | 76 | 113 | 2.0 | 6.0 | 0.00 | 0.01 | 0.00 | 77 | 1010.4 |
| 20260508192429 | 76 | 338 | 2.0 | 6.0 | 0.00 | 0.01 | 0.00 | 76 | 1010.5 |
| 20260508192214 | 77 | 46 | 2.0 | 5.0 | 0.00 | 0.01 | 0.00 | 75 | 1010.5 |
| 20260508191429 | 77 | 125 | 2.0 | 4.0 | 0.00 | 0.01 | 0.00 | 75 | 1010.5 |
| 20260508190930 | 76 | 68 | 2.0 | 5.0 | 0.00 | 0.01 | 0.00 | 76 | 1010.5 |
| 20260508190428 | 76 | 21 | 2.0 | 6.0 | 0.00 | 0.01 | 0.00 | 76 | 1010.7 |
| 20260508185929 | 76 | 220 | 2.0 | 6.0 | 0.00 | 0.01 | 0.00 | 75 | 1010.7 |
| 20260508185429 | 76 | 79 | 2.0 | 5.0 | 0.00 | 0.01 | 0.00 | 75 | 1010.8 |
| 20260508184929 | 76 | 81 | 2.0 | 5.0 | 0.00 | 0.01 | 0.00 | 75 | 1011.0 |
| 20260508184429 | 77 | 310 | 1.0 | 4.0 | 0.00 | 0.01 | 0.00 | 74 | 1011.0 |
| 20260508183932 | 76 | 0 | 2.0 | 4.0 | 0.00 | 0.01 | 0.00 | 75 | 1011.1 |
| 20260508183432 | 77 | 32 | 2.0 | 6.0 | 0.00 | 0.01 | 0.00 | 75 | 1011.1 |
| 20260508182930 | 76 | 143 | 2.0 | 7.0 | 0.00 | 0.01 | 0.00 | 75 | 1011.2 |
| 20260508182430 | 76 | 224 | 2.0 | 7.0 | 0.00 | 0.01 | 0.00 | 76 | 1011.3 |
| 20260508181929 | 76 | 90 | 2.0 | 7.0 | 0.00 | 0.01 | 0.00 | 76 | 1011.4 |
| 20260508181429 | 75 | 116 | 2.0 | 6.0 | 0.00 | 0.01 | 0.00 | 76 | 1011.4 |
| 20260508180929 | 75 | 45 | 2.0 | 6.0 | 0.00 | 0.01 | 0.00 | 76 | 1011.4 |
| 20260508180428 | 74 | 165 | 2.0 | 7.0 | 0.00 | 0.01 | 0.00 | 78 | 1011.5 |
| 20260508180000 | 73 | 273 | 2.0 | 7.0 | 0.00 | 0.01 | 0.00 | 78 | 1011.6 |
| 20260508175950 | 74 | 114 | 2.0 | 7.0 | 0.00 | 0.01 | 0.00 | 76 | 1011.5 |
| 20260508174929 | 73 | 61 | 2.0 | 6.0 | 0.00 | 0.01 | 0.00 | 79 | 1011.7 |
| 20260508174430 | 73 | 314 | 2.0 | 4.0 | 0.00 | 0.01 | 0.00 | 79 | 1011.7 |
| 20260508173930 | 73 | 100 | 2.0 | 5.0 | 0.00 | 0.01 | 0.00 | 77 | 1011.7 |
| 20260508173430 | 72 | 60 | 2.0 | 5.0 | 0.00 | 0.01 | 0.00 | 78 | 1011.7 |
| 20260508172929 | 72 | 34 | 2.0 | 5.0 | 0.00 | 0.01 | 0.00 | 78 | 1011.7 |
| 20260508172710 | 72 | 11 | 2.0 | 6.0 | 0.00 | 0.01 | 0.00 | 77 | 1011.8 |
| 20260508172213 | 71 | 134 | 2.0 | 6.0 | 0.00 | 0.01 | 0.00 | 77 | 1011.9 |
| 20260508171429 | 71 | 228 | 2.0 | 4.0 | 0.00 | 0.01 | 0.00 | 79 | 1011.9 |
| 20260508170930 | 71 | 16 | 2.0 | 4.0 | 0.00 | 0.01 | 0.00 | 79 | 1012.0 |
| 20260508170430 | 71 | 340 | 2.0 | 4.0 | 0.00 | 0.01 | 0.00 | 77 | 1012.1 |
| 20260508165930 | 71 | 306 | 1.0 | 3.0 | 0.00 | 0.01 | 0.00 | 78 | 1012.2 |
| 20260508165430 | 71 | 117 | 1.0 | 4.0 | 0.00 | 0.01 | 0.00 | 79 | 1012.3 |
| 20260508164929 | 71 | 40 | 1.0 | 4.0 | 0.00 | 0.01 | 0.00 | 78 | 1012.3 |
| 20260508164429 | 70 | 337 | 1.0 | 4.0 | 0.00 | 0.01 | 0.00 | 80 | 1012.3 |
| 20260508163930 | 71 | 329 | 1.0 | 3.0 | 0.00 | 0.01 | 0.00 | 78 | 1012.4 |
| 20260508163428 | 71 | 70 | 1.0 | 4.0 | 0.00 | 0.01 | 0.00 | 78 | 1012.5 |
| 20260508162929 | 71 | 29 | 1.0 | 4.0 | 0.00 | 0.01 | 0.00 | 77 | 1012.7 |
| 20260508162429 | 71 | 309 | 1.0 | 2.0 | 0.00 | 0.01 | 0.00 | 76 | 1012.6 |
| 20260508161929 | 71 | 334 | 1.0 | 2.0 | 0.00 | 0.01 | 0.00 | 77 | 1012.6 |
| 20260508161429 | 70 | 38 | 1.0 | 2.0 | 0.00 | 0.01 | 0.00 | 76 | 1012.6 |
| 20260508160929 | 70 | 232 | 1.0 | 2.0 | 0.00 | 0.01 | 0.00 | 80 | 1012.7 |
| 20260508160429 | 70 | 0 | 1.0 | 3.0 | 0.00 | 0.01 | 0.00 | 78 | 1012.7 |
| 20260508160420 | 69 | 74 | 1.0 | 3.0 | 0.00 | 0.01 | 0.00 | 79 | 1012.8 |
| 20260508155428 | 69 | 0 | 1.0 | 2.0 | 0.00 | 0.01 | 0.00 | 79 | 1012.8 |
| 20260508155423 | 69 | 142 | 1.0 | 2.0 | 0.00 | 0.01 | 0.00 | 79 | 1012.9 |
| 20260508154429 | 69 | 294 | 2.0 | 3.0 | 0.00 | 0.01 | 0.00 | 79 | 1013.0 |
| 20260508154159 | 68 | 334 | 2.0 | 3.0 | 0.00 | 0.01 | 0.00 | 81 | 1012.8 |
| 20260508154138 | 69 | 153 | 2.0 | 3.0 | 0.00 | 0.01 | 0.00 | 79 | 1012.9 |
| 20260508152928 | 67 | 12 | 2.0 | 3.0 | 0.00 | 0.01 | 0.00 | 81 | 1012.9 |
| 20260508152654 | 67 | 36 | 1.0 | 3.0 | 0.00 | 0.01 | 0.00 | 82 | 1013.0 |
| 20260508151929 | 67 | 20 | 1.0 | 2.0 | 0.00 | 0.01 | 0.00 | 83 | 1013.1 |
| 20260508151429 | 66 | 66 | 2.0 | 3.0 | 0.00 | 0.01 | 0.00 | 82 | 1013.1 |
| 20260508151158 | 66 | 65 | 2.0 | 4.0 | 0.00 | 0.01 | 0.00 | 82 | 1013.0 |
| 20260508150429 | 66 | 359 | 2.0 | 4.0 | 0.00 | 0.01 | 0.00 | 83 | 1013.0 |
| 20260508145929 | 66 | 273 | 2.0 | 7.0 | 0.00 | 0.01 | 0.00 | 83 | 1012.9 |
| 20260508145714 | 66 | 264 | 3.0 | 7.0 | 0.00 | 0.01 | 0.00 | 84 | 1012.9 |
| 20260508144929 | 65 | 35 | 4.0 | 8.0 | 0.00 | 0.01 | 0.00 | 84 | 1012.9 |
| 20260508144429 | 65 | 35 | 4.0 | 10.0 | 0.00 | 0.01 | 0.00 | 84 | 1013.0 |
| 20260508144215 | 65 | 27 | 3.0 | 10.0 | 0.00 | 0.01 | 0.00 | 84 | 1012.9 |
| 20260508143430 | 65 | 44 | 3.0 | 7.0 | 0.00 | 0.01 | 0.00 | 84 | 1012.8 |
| 20260508142929 | 65 | 84 | 2.0 | 7.0 | 0.00 | 0.01 | 0.00 | 84 | 1012.9 |
| 20260508142430 | 65 | 83 | 2.0 | 4.0 | 0.00 | 0.01 | 0.00 | 84 | 1013.1 |
| 20260508141930 | 64 | 205 | 2.0 | 4.0 | 0.00 | 0.01 | 0.00 | 84 | 1013.0 |
| 20260508141430 | 64 | 106 | 2.0 | 5.0 | 0.00 | 0.01 | 0.00 | 85 | 1013.1 |
| 20260508140918 | 64 | 83 | 2.0 | 5.0 | 0.00 | 0.01 | 0.00 | 84 | 1013.1 |
| 20260508140415 | 64 | 41 | 2.0 | 4.0 | 0.00 | 0.01 | 0.00 | 85 | 1013.0 |
| 20260508140142 | 63 | 41 | 3.0 | 4.0 | 0.00 | 0.01 | 0.00 | 85 | 1013.1 |
| 20260508135415 | 63 | 54 | 2.0 | 4.0 | 0.00 | 0.01 | 0.00 | 85 | 1013.1 |
| 20260508135140 | 64 | 50 | 3.0 | 4.0 | 0.00 | 0.01 | 0.00 | 84 | 1013.2 |
| 20260508134416 | 63 | 206 | 3.0 | 4.0 | 0.00 | 0.01 | 0.00 | 84 | 1013.2 |
| 20260508133915 | 63 | 31 | 3.0 | 5.0 | 0.00 | 0.01 | 0.00 | 84 | 1013.0 |
| 20260508133406 | 63 | 36 | 3.0 | 5.0 | 0.00 | 0.01 | 0.00 | 84 | 1013.2 |
| 20260508132907 | 63 | 5 | 3.0 | 6.0 | 0.00 | 0.01 | 0.00 | 84 | 1013.2 |
| 20260508132650 | 63 | 235 | 3.0 | 9.0 | 0.00 | 0.01 | 0.00 | 85 | 1013.3 |
| 20260508131901 | 62 | 231 | 4.0 | 9.0 | 0.00 | 0.01 | 0.00 | 85 | 1013.4 |
| 20260508131401 | 62 | 38 | 4.0 | 9.0 | 0.00 | 0.01 | 0.00 | 85 | 1013.3 |
| 20260508130901 | 62 | 34 | 3.0 | 7.0 | 0.00 | 0.01 | 0.00 | 86 | 1013.3 |
| 20260508130403 | 62 | 38 | 3.0 | 6.0 | 0.00 | 0.01 | 0.00 | 86 | 1013.2 |
| 20260508125904 | 62 | 167 | 3.0 | 6.0 | 0.00 | 0.01 | 0.00 | 86 | 1013.3 |
| 20260508125402 | 62 | 271 | 3.0 | 5.0 | 0.00 | 0.01 | 0.00 | 85 | 1013.1 |
| 20260508124900 | 62 | 251 | 3.0 | 4.0 | 0.00 | 0.01 | 0.00 | 85 | 1013.1 |
| 20260508124401 | 62 | 238 | 3.0 | 4.0 | 0.00 | 0.01 | 0.00 | 85 | 1013.3 |
| 20260508123901 | 62 | 233 | 2.0 | 5.0 | 0.00 | 0.01 | 0.00 | 85 | 1013.4 |
| 20260508123401 | 62 | 238 | 3.0 | 7.0 | 0.00 | 0.01 | 0.00 | 85 | 1013.5 |
| 20260508122901 | 62 | 31 | 4.0 | 7.0 | 0.00 | 0.01 | 0.00 | 85 | 1013.5 |
| 20260508122401 | 62 | 34 | 4.0 | 7.0 | 0.00 | 0.01 | 0.00 | 85 | 1013.6 |
| 20260508121901 | 61 | 41 | 4.0 | 8.0 | 0.00 | 0.01 | 0.00 | 85 | 1013.5 |
| 20260508121403 | 61 | 34 | 4.0 | 8.0 | 0.00 | 0.01 | 0.00 | 85 | 1013.5 |
| 20260508120901 | 61 | 17 | 4.0 | 5.0 | 0.00 | 0.01 | 0.00 | 86 | 1013.6 |
| 20260508120401 | 61 | 27 | 3.0 | 5.0 | 0.00 | 0.01 | 0.00 | 85 | 1013.7 |
| 20260508120130 | 62 | 27 | 3.0 | 7.0 | 0.00 | 0.01 | 0.00 | 85 | 1013.7 |
| 20260508115402 | 62 | 237 | 3.0 | 8.0 | 0.00 | 0.01 | 0.00 | 84 | 1013.9 |
| 20260508114901 | 62 | 330 | 3.0 | 8.0 | 0.00 | 0.01 | 0.00 | 84 | 1013.8 |
| 20260508114401 | 62 | 30 | 4.0 | 6.0 | 0.00 | 0.01 | 0.00 | 84 | 1013.9 |
| 20260508113901 | 62 | 33 | 3.0 | 6.0 | 0.00 | 0.01 | 0.00 | 85 | 1014.0 |
| 20260508113401 | 62 | 19 | 4.0 | 8.0 | 0.00 | 0.01 | 0.00 | 85 | 1014.1 |
| 20260508112902 | 62 | 235 | 4.0 | 8.0 | 0.00 | 0.01 | 0.00 | 85 | 1014.0 |
| 20260508112641 | 61 | 33 | 4.0 | 8.0 | 0.00 | 0.01 | 0.00 | 85 | 1014.0 |
| 20260508111902 | 61 | 38 | 5.0 | 9.0 | 0.00 | 0.01 | 0.00 | 85 | 1013.9 |
| 20260508111402 | 62 | 28 | 4.0 | 9.0 | 0.00 | 0.01 | 0.00 | 85 | 1013.6 |
| 20260508110903 | 62 | 28 | 4.0 | 8.0 | 0.00 | 0.01 | 0.00 | 85 | 1013.6 |
| 20260508110402 | 62 | 19 | 4.0 | 8.0 | 0.00 | 0.01 | 0.00 | 84 | 1013.6 |
| 20260508105900 | 62 | 28 | 4.0 | 8.0 | 0.00 | 0.01 | 0.00 | 85 | 1013.6 |
| 20260508105721 | 62 | 9 | 3.0 | 8.0 | 0.00 | 0.01 | 0.00 | 85 | 1013.6 |
| 20260508105427 | 62 | 31 | 4.0 | 8.0 | 0.00 | 0.01 | 0.00 | 85 | 1013.5 |
| 20260508104401 | 62 | 289 | 4.0 | 9.0 | 0.00 | 0.01 | 0.00 | 84 | 1013.4 |
| 20260508103901 | 62 | 32 | 4.0 | 9.0 | 0.00 | 0.01 | 0.00 | 84 | 1013.3 |
| 20260508103402 | 62 | 33 | 3.0 | 9.0 | 0.00 | 0.01 | 0.00 | 84 | 1013.4 |
| 20260508102903 | 62 | 25 | 2.0 | 6.0 | 0.00 | 0.01 | 0.00 | 84 | 1013.7 |
| 20260508102402 | 62 | 7 | 3.0 | 7.0 | 0.00 | 0.01 | 0.00 | 84 | 1013.8 |
| 20260508101901 | 62 | 223 | 4.0 | 8.0 | 0.00 | 0.01 | 0.00 | 84 | 1014.0 |
| 20260508101402 | 62 | 37 | 3.0 | 8.0 | 0.00 | 0.01 | 0.00 | 83 | 1014.0 |
| 20260508100902 | 62 | 316 | 2.0 | 7.0 | 0.00 | 0.01 | 0.00 | 83 | 1014.0 |
| 20260508100402 | 62 | 181 | 2.0 | 9.0 | 0.00 | 0.01 | 0.00 | 83 | 1014.1 |
| 20260508095901 | 62 | 333 | 3.0 | 12.0 | 0.00 | 0.01 | 0.00 | 83 | 1014.2 |
| 20260508095402 | 62 | 358 | 3.0 | 12.0 | 0.00 | 0.01 | 0.00 | 83 | 1014.2 |
| 20260508094902 | 62 | 47 | 2.0 | 6.0 | 0.00 | 0.01 | 0.00 | 83 | 1014.2 |
| 20260508094627 | 62 | 215 | 2.0 | 6.0 | 0.00 | 0.01 | 0.00 | 84 | 1014.1 |
| 20260508093902 | 62 | 31 | 2.0 | 6.0 | 0.00 | 0.01 | 0.00 | 84 | 1014.1 |
| 20260508093635 | 62 | 33 | 2.0 | 5.0 | 0.00 | 0.01 | 0.00 | 83 | 1014.1 |
| 20260508092902 | 62 | 309 | 3.0 | 5.0 | 0.00 | 0.01 | 0.00 | 83 | 1014.1 |
| 20260508092401 | 62 | 300 | 3.0 | 4.0 | 0.00 | 0.01 | 0.00 | 83 | 1013.9 |
| 20260508091901 | 62 | 295 | 3.0 | 4.0 | 0.00 | 0.01 | 0.00 | 84 | 1013.8 |
| 20260508091401 | 62 | 304 | 2.0 | 4.0 | 0.00 | 0.01 | 0.00 | 84 | 1013.8 |
| 20260508090901 | 62 | 3 | 3.0 | 5.0 | 0.00 | 0.01 | 0.00 | 84 | 1013.8 |
| 20260508090402 | 62 | 341 | 2.0 | 5.0 | 0.00 | 0.01 | 0.00 | 84 | 1013.6 |
| 20260508085849 | 62 | 311 | 2.0 | 5.0 | 0.00 | 0.01 | 0.00 | 84 | 1013.5 |
| 20260508085348 | 62 | 1 | 3.0 | 8.0 | 0.00 | 0.01 | 0.00 | 84 | 1013.4 |
| 20260508084845 | 62 | 18 | 3.0 | 8.0 | 0.00 | 0.01 | 0.00 | 84 | 1013.6 |
| 20260508084346 | 62 | 38 | 4.0 | 8.0 | 0.00 | 0.01 | 0.00 | 84 | 1013.6 |
| 20260508083846 | 62 | 229 | 4.0 | 8.0 | 0.00 | 0.01 | 0.00 | 84 | 1013.7 |
| 20260508083346 | 62 | 233 | 4.0 | 7.0 | 0.00 | 0.01 | 0.00 | 84 | 1013.7 |
| 20260508082846 | 61 | 236 | 3.0 | 7.0 | 0.00 | 0.01 | 0.00 | 84 | 1013.7 |
| 20260508082345 | 61 | 24 | 3.0 | 6.0 | 0.00 | 0.01 | 0.00 | 84 | 1013.8 |
| 20260508081846 | 61 | 257 | 4.0 | 7.0 | 0.00 | 0.01 | 0.00 | 85 | 1013.8 |
| 20260508081346 | 61 | 346 | 5.0 | 9.0 | 0.00 | 0.01 | 0.00 | 85 | 1013.5 |
| 20260508080846 | 61 | 313 | 5.0 | 9.0 | 0.00 | 0.01 | 0.00 | 85 | 1013.5 |
| 20260508080346 | 61 | 0 | 5.0 | 7.0 | 0.00 | 0.01 | 0.00 | 85 | 1013.6 |
| 20260508075846 | 61 | 25 | 5.0 | 8.0 | 0.00 | 0.01 | 0.00 | 85 | 1013.5 |
| 20260508075348 | 61 | 15 | 5.0 | 8.0 | 0.00 | 0.01 | 0.00 | 85 | 1013.4 |
| 20260508075127 | 61 | 30 | 4.0 | 8.0 | 0.00 | 0.01 | 0.00 | 85 | 1013.3 |
| 20260508074340 | 61 | 7 | 5.0 | 8.0 | 0.00 | 0.01 | 0.00 | 85 | 1013.3 |
| 20260508073840 | 61 | 34 | 5.0 | 8.0 | 0.00 | 0.01 | 0.00 | 85 | 1013.5 |
| 20260508073618 | 61 | 37 | 4.0 | 8.0 | 0.00 | 0.01 | 0.00 | 85 | 1013.6 |
| 20260508072834 | 61 | 35 | 4.0 | 8.0 | 0.00 | 0.01 | 0.00 | 85 | 1013.7 |
| 20260508072334 | 61 | 33 | 4.0 | 8.0 | 0.00 | 0.01 | 0.00 | 85 | 1013.6 |
| 20260508071835 | 61 | 33 | 4.0 | 8.0 | 0.00 | 0.01 | 0.00 | 85 | 1013.6 |
| 20260508071400 | 61 | 18 | 3.0 | 6.0 | 0.00 | 0.01 | 0.00 | 85 | 1014.0 |
| 20260508071350 | 61 | 30 | 4.0 | 8.0 | 0.00 | 0.01 | 0.00 | 85 | 1013.7 |
| 20260508070329 | 61 | 16 | 3.0 | 5.0 | 0.00 | 0.01 | 0.00 | 86 | 1014.1 |
| 20260508070108 | 61 | 7 | 3.0 | 5.0 | 0.00 | 0.01 | 0.00 | 86 | 1014.1 |
| 20260508065323 | 61 | 22 | 3.0 | 5.0 | 0.00 | 0.01 | 0.00 | 85 | 1014.0 |
| 20260508064823 | 61 | 14 | 3.0 | 5.0 | 0.00 | 0.01 | 0.00 | 85 | 1014.2 |
| 20260508064320 | 61 | 26 | 3.0 | 6.0 | 0.00 | 0.01 | 0.00 | 84 | 1014.3 |
| 20260508063805 | 60 | 19 | 3.0 | 6.0 | 0.00 | 0.01 | 0.00 | 85 | 1014.4 |
| 20260508063305 | 60 | 36 | 2.0 | 6.0 | 0.00 | 0.01 | 0.00 | 85 | 1014.5 |
| 20260508062804 | 60 | 239 | 2.0 | 4.0 | 0.00 | 0.01 | 0.00 | 86 | 1014.8 |
| 20260508062306 | 60 | 214 | 2.0 | 4.0 | 0.00 | 0.01 | 0.00 | 85 | 1015.0 |
| 20260508061804 | 60 | 211 | 2.0 | 4.0 | 0.00 | 0.01 | 0.00 | 85 | 1014.8 |
| 20260508061304 | 60 | 232 | 2.0 | 4.0 | 0.00 | 0.01 | 0.00 | 85 | 1014.6 |
| 20260508060804 | 60 | 275 | 3.0 | 4.0 | 0.00 | 0.01 | 0.00 | 85 | 1014.4 |
| 20260508060303 | 60 | 12 | 3.0 | 4.0 | 0.00 | 0.01 | 0.00 | 86 | 1014.4 |
| 20260508055803 | 60 | 341 | 2.0 | 4.0 | 0.00 | 0.01 | 0.00 | 86 | 1014.3 |
| 20260508055305 | 60 | 237 | 2.0 | 4.0 | 0.00 | 0.01 | 0.00 | 86 | 1014.4 |
| 20260508054803 | 60 | 236 | 2.0 | 4.0 | 0.00 | 0.01 | 0.00 | 85 | 1014.6 |
| 20260508054302 | 60 | 231 | 2.0 | 5.0 | 0.00 | 0.01 | 0.00 | 85 | 1014.5 |
| 20260508053802 | 60 | 36 | 2.0 | 5.0 | 0.00 | 0.01 | 0.00 | 85 | 1014.5 |
| 20260508053302 | 60 | 233 | 2.0 | 5.0 | 0.00 | 0.01 | 0.00 | 86 | 1014.4 |
| 20260508052802 | 60 | 247 | 2.0 | 5.0 | 0.00 | 0.01 | 0.00 | 86 | 1014.3 |
| 20260508052530 | 60 | 279 | 3.0 | 6.0 | 0.00 | 0.01 | 0.00 | 87 | 1014.2 |
| 20260508051803 | 60 | 248 | 3.0 | 6.0 | 0.00 | 0.01 | 0.00 | 87 | 1014.2 |
| 20260508051303 | 61 | 7 | 3.0 | 5.0 | 0.00 | 0.01 | 0.00 | 86 | 1014.2 |
| 20260508050802 | 61 | 2 | 2.0 | 4.0 | 0.00 | 0.01 | 0.00 | 86 | 1014.3 |
| 20260508050302 | 61 | 10 | 2.0 | 4.0 | 0.00 | 0.01 | 0.00 | 86 | 1014.6 |
| 20260508045802 | 60 | 24 | 3.0 | 6.0 | 0.00 | 0.01 | 0.01 | 86 | 1015.0 |
| 20260508045301 | 60 | 13 | 3.0 | 6.0 | 0.00 | 0.01 | 0.01 | 86 | 1015.2 |
| 20260508045031 | 60 | 268 | 2.0 | 5.0 | 0.00 | 0.01 | 0.01 | 86 | 1014.9 |
| 20260508044527 | 60 | 319 | 2.0 | 5.0 | 0.00 | 0.01 | 0.01 | 86 | 1014.7 |
| 20260508043800 | 60 | 254 | 2.0 | 6.0 | 0.00 | 0.01 | 0.01 | 86 | 1014.3 |
| 20260508043254 | 60 | 325 | 2.0 | 6.0 | 0.00 | 0.01 | 0.01 | 86 | 1014.1 |
| 20260508042751 | 60 | 37 | 2.0 | 6.0 | 0.00 | 0.01 | 0.01 | 86 | 1014.1 |
| 20260508042741 | 60 | 237 | 2.0 | 4.0 | 0.00 | 0.01 | 0.01 | 86 | 1014.7 |
| 20260508041736 | 60 | 290 | 2.0 | 4.0 | 0.00 | 0.01 | 0.01 | 86 | 1015.2 |
| 20260508041237 | 60 | 235 | 2.0 | 4.0 | 0.00 | 0.01 | 0.01 | 86 | 1014.9 |
| 20260508041008 | 60 | 219 | 2.0 | 4.0 | 0.00 | 0.01 | 0.01 | 86 | 1014.7 |
| 20260508040508 | 60 | 223 | 1.0 | 4.0 | 0.00 | 0.01 | 0.01 | 86 | 1014.9 |
| 20260508035737 | 60 | 231 | 2.0 | 4.0 | 0.00 | 0.01 | 0.01 | 86 | 1015.0 |
| 20260508035237 | 60 | 232 | 2.0 | 4.0 | 0.00 | 0.01 | 0.01 | 86 | 1015.2 |
| 20260508035008 | 60 | 238 | 2.0 | 4.0 | 0.00 | 0.01 | 0.01 | 86 | 1015.3 |
| 20260508034731 | 61 | 219 | 2.0 | 4.0 | 0.00 | 0.01 | 0.01 | 85 | 1015.3 |
| 20260508033731 | 61 | 22 | 2.0 | 5.0 | 0.00 | 0.01 | 0.01 | 85 | 1015.3 |
| 20260508033230 | 61 | 215 | 2.0 | 6.0 | 0.00 | 0.01 | 0.01 | 85 | 1015.6 |
| 20260508032730 | 61 | 222 | 3.0 | 7.0 | 0.00 | 0.01 | 0.01 | 85 | 1015.9 |
| 20260508032229 | 61 | 223 | 3.0 | 7.0 | 0.00 | 0.01 | 0.01 | 85 | 1015.7 |
| 20260508031730 | 61 | 224 | 2.0 | 7.0 | 0.00 | 0.01 | 0.01 | 85 | 1015.3 |
| 20260508031231 | 61 | 235 | 2.0 | 5.0 | 0.00 | 0.01 | 0.01 | 85 | 1014.7 |
| 20260508030731 | 61 | 238 | 2.0 | 5.0 | 0.00 | 0.01 | 0.01 | 85 | 1014.6 |
| 20260508030230 | 61 | 280 | 3.0 | 5.0 | 0.00 | 0.01 | 0.01 | 84 | 1014.8 |
| 20260508030013 | 61 | 235 | 2.0 | 5.0 | 0.00 | 0.01 | 0.01 | 84 | 1014.7 |
| 20260508025229 | 61 | 231 | 3.0 | 7.0 | 0.00 | 0.01 | 0.01 | 84 | 1014.4 |
| 20260508024730 | 61 | 24 | 4.0 | 7.0 | 0.00 | 0.01 | 0.01 | 83 | 1014.3 |
| 20260508024225 | 61 | 286 | 4.0 | 7.0 | 0.00 | 0.01 | 0.01 | 83 | 1014.2 |
| 20260508023729 | 61 | 25 | 4.0 | 7.0 | 0.00 | 0.01 | 0.01 | 83 | 1013.9 |
| 20260508023226 | 61 | 19 | 4.0 | 6.0 | 0.00 | 0.01 | 0.01 | 83 | 1013.5 |
| 20260508022725 | 61 | 17 | 4.0 | 6.0 | 0.00 | 0.01 | 0.01 | 83 | 1013.3 |
| 20260508022223 | 61 | 15 | 3.0 | 6.0 | 0.00 | 0.01 | 0.01 | 83 | 1013.3 |